Weather History for Eagle, CO

Change the Weather History Date:

Thursday, June 27, 2013

  Actual Average Record
Temperature  
Mean Temperature 70 °F -  
Max Temperature 93 °F 85 °F 95 °F (1990)
Min Temperature 48 °F 42 °F 29 °F (1985)
Cooling Degree Days 6    
Growing Degree Days 20 (Base 50)    
Moisture  
Dew Point 34 °F    
Average Humidity 30    
Maximum Humidity 58    
Minimum Humidity 10    
Precipitation  
Precipitation 0.00 in - - ()
Sea Level Pressure  
Sea Level Pressure 30.33 in    
Wind  
Wind Speed 3 mph (East)    
Max Wind Speed 16 mph    
Max Gust Speed 24 mph    
Visibility 10 miles    
Events      
Averages and records for this station are not official NWS values.
T = Trace of Precipitation, MM = Missing Value Source: NWS Daily Summary

Daily Weather History Graph

Daily Weather History Graph

Search for Another Location

Airport:

Trip Planner

Search our weather history database for the weather conditions in past years. The results will help you decide how hot, cold, wet, or windy it might be!

Date:

Astronomy

Jun. 27, 2013 Rise Set
Actual Time 5:42 AM MDT 8:39 PM MDT
Civil Twilight 5:09 AM MDT 9:11 PM MDT
Nautical Twilight 4:28 AM MDT 9:53 PM MDT
Astronomical Twilight 3:40 AM MDT 10:40 PM MDT
Moon 11:39 PM MDT (6/27) 10:45 AM MDT (6/27)
Length of Visible Light 16h 02m
Length of Day
14h 57m
Waning Gibbous, 76% of the Moon is Illuminated
Jun 27
Waning Gibbous
Jun 29
Last Quarter
Jul 8
New
Jul 15
First Quarter
Jul 22
Full

Hourly Weather History & Observations

Time (MDT) Temp. Dew Point Humidity Pressure Visibility Wind Dir Wind Speed Gust Speed Precip Events Conditions
12:15 AM 62.6 °F 33.8 °F 34% 30.28 in 10.0 mi ESE 5.8 mph - N/A   Clear
12:35 AM 62.6 °F 32.0 °F 32% 30.29 in 10.0 mi Calm Calm - N/A   Clear
12:55 AM 60.8 °F 32.0 °F 34% 30.29 in 10.0 mi Calm Calm - N/A   Clear
1:15 AM 59.0 °F 32.0 °F 36% 30.29 in 10.0 mi Calm Calm - N/A   Clear
1:35 AM 57.2 °F 32.0 °F 38% 30.29 in 10.0 mi ESE 4.6 mph - N/A   Clear
1:55 AM 57.2 °F 32.0 °F 38% 30.30 in 10.0 mi Calm Calm - N/A   Clear
2:15 AM 55.4 °F 33.8 °F 44% 30.30 in 10.0 mi East 3.5 mph - N/A   Clear
2:35 AM 55.4 °F 33.8 °F 44% 30.31 in 10.0 mi SSE 4.6 mph - N/A   Clear
2:55 AM 55.4 °F 33.8 °F 44% 30.33 in 10.0 mi SSE 5.8 mph - N/A   Clear
3:15 AM 55.4 °F 33.8 °F 44% 30.33 in 10.0 mi NNW 3.5 mph - N/A   Clear
3:35 AM 55.4 °F 33.8 °F 44% 30.34 in 10.0 mi Calm Calm - N/A   Clear
4:15 AM 55.4 °F 32.0 °F 41% 30.35 in 10.0 mi Calm Calm - N/A   Clear
4:35 AM 53.6 °F 33.8 °F 47% 30.36 in 10.0 mi Calm Calm - N/A   Clear
4:55 AM 51.8 °F 33.8 °F 50% 30.37 in 10.0 mi Calm Calm - N/A   Clear
5:15 AM 51.8 °F 33.8 °F 50% 30.38 in 10.0 mi Calm Calm - N/A   Clear
5:35 AM 51.8 °F 33.8 °F 50% 30.38 in 10.0 mi Calm Calm - N/A   Clear
5:55 AM 50.0 °F 33.8 °F 54% 30.39 in 10.0 mi Calm Calm - N/A   Clear
6:15 AM 48.2 °F 33.8 °F 58% 30.40 in 10.0 mi Calm Calm - N/A   Clear
6:35 AM 51.8 °F 33.8 °F 50% 30.41 in 10.0 mi Calm Calm - N/A   Clear
6:50 AM 53.6 °F 35.6 °F 51% 30.41 in 10.0 mi Calm Calm - N/A   Clear
7:50 AM 57.2 °F 35.6 °F 44% 30.43 in 10.0 mi Calm Calm - N/A   Clear
8:50 AM 64.4 °F 35.6 °F 34% 30.43 in 10.0 mi Calm Calm - N/A   Clear
9:50 AM 71.6 °F 35.6 °F 27% 30.42 in 10.0 mi Calm Calm - N/A   Clear
10:50 AM 77.0 °F 35.6 °F 22% 30.40 in 10.0 mi Calm Calm - N/A   Clear
11:50 AM 84.2 °F 35.6 °F 18% 30.39 in 10.0 mi Calm Calm - N/A   Clear
12:50 PM 87.8 °F 33.8 °F 15% 30.37 in 10.0 mi East 6.9 mph - N/A   Scattered Clouds
1:50 PM 89.6 °F 30.2 °F 12% 30.34 in 10.0 mi East 6.9 mph - N/A   Partly Cloudy
2:50 PM 91.4 °F 32.0 °F 12% 30.32 in 10.0 mi ENE 8.1 mph - N/A   Partly Cloudy
3:50 PM 91.4 °F 30.2 °F 11% 30.30 in 10.0 mi South 3.5 mph - N/A   Partly Cloudy
4:50 PM 91.4 °F 28.4 °F 10% 30.28 in 10.0 mi Calm Calm - N/A   Partly Cloudy
5:50 PM 93.2 °F 28.4 °F 10% 30.27 in 10.0 mi Calm Calm - N/A   Partly Cloudy
6:50 PM 91.4 °F 33.8 °F 13% 30.27 in 10.0 mi North 12.7 mph 24.2 mph N/A   Partly Cloudy
6:55 PM 91.4 °F 35.6 °F 14% 30.27 in 10.0 mi North 16.1 mph 19.6 mph N/A   Clear
7:15 PM 89.6 °F 33.8 °F 14% 30.27 in 10.0 mi North 13.8 mph 20.7 mph N/A   Clear
7:35 PM 89.6 °F 33.8 °F 14% 30.27 in 10.0 mi North 9.2 mph - N/A   Clear
8:15 PM 87.8 °F 33.8 °F 15% 30.28 in 10.0 mi North 15.0 mph 20.7 mph N/A   Clear
8:35 PM 84.2 °F 32.0 °F 15% 30.28 in 10.0 mi North 13.8 mph 21.9 mph N/A   Clear
8:55 PM 82.4 °F 33.8 °F 17% 30.29 in 10.0 mi SSE 6.9 mph - N/A   Clear
9:15 PM 82.4 °F 32.0 °F 16% 30.31 in 10.0 mi South 5.8 mph - N/A   Clear
9:35 PM 78.8 °F 35.6 °F 21% 30.32 in 10.0 mi East 3.5 mph - N/A   Clear
9:55 PM 75.2 °F 33.8 °F 22% 30.33 in 10.0 mi East 5.8 mph - N/A   Clear
10:15 PM 75.2 °F 35.6 °F 24% 30.34 in 10.0 mi ENE 5.8 mph - N/A   Clear
10:35 PM 71.6 °F 35.6 °F 27% 30.35 in 10.0 mi East 6.9 mph - N/A   Clear
10:55 PM 69.8 °F 35.6 °F 28% 30.35 in 10.0 mi East 8.1 mph - N/A   Clear
11:15 PM 69.8 °F 35.6 °F 28% 30.35 in 10.0 mi East 4.6 mph - N/A   Clear
11:35 PM 69.8 °F 33.8 °F 27% 30.35 in 10.0 mi East 3.5 mph - N/A   Clear
11:55 PM 66.2 °F 35.6 °F 32% 30.36 in 10.0 mi East 4.6 mph - N/A   Clear